Location: Newark
(33.6333°S, 78.8500°W)
Time: 13:02:58
(UTC+00:00)

Vanguard 1 Rocket - Visible Passes

Search period start: 23 September 2019 00:00
Search period end: 03 October 2019 00:00
Orbit: 651 x 4225 km, 34.3° (Epoch: 20 September)

Date Brightness Start Highest point End Pass type
(mag) Time Alt. Az. Time Alt. Az. Time Alt. Az.
23 Sep 9.4 08:26:01 14° NE 08:26:32 14° NE 08:29:30 10° ENE visible
24 Sep 8.3 09:36:13 20° NNW 09:39:31 42° NNE 09:47:10 10° E visible
25 Sep 8.9 08:29:07 20° NE 08:29:07 20° NE 08:33:30 10° E visible
26 Sep 7.8 09:39:16 24° NW 09:42:19 55° NNE 09:50:06 10° E visible
27 Sep 8.4 08:32:07 28° NE 08:32:07 28° NE 08:36:55 10° E visible
28 Sep 7.5 09:42:13 25° WNW 09:45:14 68° NNE 09:53:00 10° E visible
29 Sep 7.9 08:35:02 39° NE 08:35:02 39° NE 08:40:06 10° E visible
30 Sep 7.3 09:45:07 23° WNW 09:48:15 81° NNE 09:55:53 10° E visible
01 Oct 7.4 08:37:54 52° NE 08:37:54 52° NE 08:43:10 10° E visible
02 Oct 9.7 07:30:41 11° E 07:30:41 11° E 07:31:01 10° E visible
02 Oct 7.2 09:47:57 20° W 09:51:20 89° S 09:58:47 10° E visible
